{"data":{"norad_id":66250,"epoch":"2026-05-25T02:59:53.934720Z","epoch_age_seconds":64991,"freshness":"FRESH","line1":"1 66250U 25245S   26145.12492980  .00025701  00000+0  83671-3 0  9992","line2":"2 66250  53.1608 288.5380 0001728  80.2159 279.9038 15.31715211 32865","mean_motion":15.31715211,"eccentricity":0.0001728,"inclination_deg":53.1608,"raan_deg":288.538,"arg_perigee_deg":80.2159,"mean_anomaly_deg":279.9038,"bstar":0.00083671,"rev_number":3286,"period_min":94.012254344584,"perigee_km":469.51117429187,"apogee_km":471.87813051094,"semimajor_km":6848.8316524014,"source":"CELESTRAK","updated_at":"2026-05-25T13:38:21.136863Z"}}